Niagara College

*Note: All times are displayed in the local standard time of the station location.
**Rain - Equipment is designed to accurately record liquid precipitation; under conditions when precipitation is not in liquid form, the data displayed may not properly reflect rainfall values.

Date Max Temp
(°C)
Min Temp
(°C)
Avg Temp
(°C)
Rain (mm) Avg RH (%)
Fri, Feb 15, 2019 5.9 -4.2 1.6 2.4 71.9
Thu, Feb 14, 2019 6.2 -4.6 0.0 0.0 66.4
Wed, Feb 13, 2019 1.1 -4.6 -2.5 0.2 78.0
Tue, Feb 12, 2019 2.7 -5.4 -2.0 13.0 87.9
Mon, Feb 11, 2019 -2.3 -4.9 -3.6 0.0 73.1
Sun, Feb 10, 2019 -3.0 -9.2 -5.8 0.0 70.3
Sat, Feb 09, 2019 -3.4 -9.7 -7.0 0.0 64.6
DateTime Avg Temp (°C) Rain (mm) RH (%)
Sat, Feb 16, 2019 16:00 -2.2 0.0 58.9
Sat, Feb 16, 2019 15:00 -2.4 0.0 60.4
Sat, Feb 16, 2019 14:00 -2.7 0.0 60.7
Sat, Feb 16, 2019 13:00 -3.2 0.0 62.0
Sat, Feb 16, 2019 12:00 -3.6 0.0 63.2
Sat, Feb 16, 2019 11:00 -3.7 0.0 64.4
Sat, Feb 16, 2019 10:00 -3.6 0.0 63.1
Sat, Feb 16, 2019 09:00 -3.8 0.0 62.6
Sat, Feb 16, 2019 08:00 -4.3 0.0 64.5
Sat, Feb 16, 2019 07:00 -4.1 0.0 65.8
Sat, Feb 16, 2019 06:00 -3.2 0.0 68.6
Sat, Feb 16, 2019 05:00 -3.5 0.0 78.1
Sat, Feb 16, 2019 04:00 -3.5 0.0 77.9
Sat, Feb 16, 2019 03:00 -3.6 0.0 76.4
Sat, Feb 16, 2019 02:00 -3.6 0.0 74.2
Sat, Feb 16, 2019 01:00 -3.9 0.0 72.5
Sat, Feb 16, 2019 00:00 -4.0 0.0 70.7
Fri, Feb 15, 2019 23:00 -4.1 0.0 69.6
Fri, Feb 15, 2019 22:00 -3.7 0.0 67.8
Fri, Feb 15, 2019 21:00 -3.0 0.0 65.9
Fri, Feb 15, 2019 20:00 -2.2 0.0 67.0
Fri, Feb 15, 2019 19:00 -1.7 0.0 65.0
Fri, Feb 15, 2019 18:00 -1.0 0.0 64.3
Fri, Feb 15, 2019 17:00 -0.3 0.0 63.0
Fri, Feb 15, 2019 16:00 0.3 0.0 66.8
Fri, Feb 15, 2019 15:00 0.9 0.0 64.1
Fri, Feb 15, 2019 14:00 1.8 0.0 65.6
Fri, Feb 15, 2019 13:00 2.2 0.0 65.4
Fri, Feb 15, 2019 12:00 2.7 0.0 69.5
Fri, Feb 15, 2019 11:00 4.3 0.0 76.3
Fri, Feb 15, 2019 10:00 4.4 0.0 83.4
Fri, Feb 15, 2019 09:00 4.1 0.2 90.2
Fri, Feb 15, 2019 08:00 4.3 0.0 90.8
Fri, Feb 15, 2019 07:00 4.1 0.2 94.0
Fri, Feb 15, 2019 06:00 4.1 1.2 92.3
Fri, Feb 15, 2019 05:00 4.0 0.6 89.4
Fri, Feb 15, 2019 04:00 5.1 0.2 73.2
Fri, Feb 15, 2019 03:00 5.2 0.0 66.2
Fri, Feb 15, 2019 02:00 5.0 0.0 54.1
Fri, Feb 15, 2019 01:00 5.5 0.0 52.5
Fri, Feb 15, 2019 00:00 5.9 0.0 55.6
Thu, Feb 14, 2019 23:00 5.2 0.0 52.7
Thu, Feb 14, 2019 22:00 4.5 0.0 54.1
Thu, Feb 14, 2019 21:00 3.4 0.0 62.0
Thu, Feb 14, 2019 20:00 0.9 0.0 71.4
Thu, Feb 14, 2019 19:00 1.4 0.0 65.7
Thu, Feb 14, 2019 18:00 1.9 0.0 60.5
Thu, Feb 14, 2019 17:00 2.7 0.0 55.8


asterix Register now to access more data! asterix